Time,TemperatureF,DewpointF,PressureIn,WindDirection,WindDirectionDegrees,WindSpeedMPH,WindSpeedGustMPH,Humidity,HourlyPrecipIn,Conditions,Clouds,dailyrainin,SoftwareType,DateUTC
2013-09-14 00:01:00,60.3,55.1,29.69,SW,233,0.0,1.0,83,0.00,,,0.00,WeatherCatV1.21B27,2013-09-14 04:01:00,
2013-09-14 00:06:00,60.3,55.1,29.69,South,171,0.0,2.0,83,0.00,,,0.00,WeatherCatV1.21B27,2013-09-14 04:06:00,
2013-09-14 00:11:00,60.3,55.1,29.69,SW,215,0.0,4.0,83,0.00,,,0.00,WeatherCatV1.21B27,2013-09-14 04:11:00,
2013-09-14 00:16:00,60.2,55.0,29.69,SSW,196,0.0,3.0,83,0.00,,,0.00,WeatherCatV1.21B27,2013-09-14 04:16:00,
2013-09-14 00:21:00,60.2,55.0,29.69,WSW,240,0.0,1.0,83,0.00,,,0.00,WeatherCatV1.21B27,2013-09-14 04:21:00,
2013-09-14 00:26:00,60.2,55.0,29.70,SSW,193,0.0,3.0,83,0.00,,,0.00,WeatherCatV1.21B27,2013-09-14 04:26:00,
2013-09-14 00:31:00,60.1,54.6,29.70,SW,222,1.0,4.0,82,0.00,,,0.00,WeatherCatV1.21B27,2013-09-14 04:31:00,
2013-09-14 00:36:00,60.1,54.6,29.70,SSW,211,2.0,2.0,82,0.00,,,0.00,WeatherCatV1.21B27,2013-09-14 04:36:00,
2013-09-14 00:41:00,60.1,54.6,29.70,SSE,152,0.0,1.0,82,0.00,,,0.00,WeatherCatV1.21B27,2013-09-14 04:41:00,
2013-09-14 00:46:00,60.0,54.5,29.70,South,187,0.0,1.0,82,0.00,,,0.00,WeatherCatV1.21B27,2013-09-14 04:46:00,
2013-09-14 00:51:00,60.1,54.6,29.70,West,270,0.0,0.0,82,0.00,,,0.00,WeatherCatV1.21B27,2013-09-14 04:51:00,
2013-09-14 00:56:00,60.0,54.5,29.70,South,190,0.0,1.0,82,0.00,,,0.00,WeatherCatV1.21B27,2013-09-14 04:56:00,
2013-09-14 01:01:00,60.1,54.6,29.70,SSW,204,0.0,1.0,82,0.00,,,0.00,WeatherCatV1.21B27,2013-09-14 05:01:00,
2013-09-14 01:06:00,60.0,54.2,29.70,SSW,194,0.0,2.0,81,0.00,,,0.00,WeatherCatV1.21B27,2013-09-14 05:06:00,
2013-09-14 01:11:00,60.0,54.2,29.71,South,175,0.0,1.0,81,0.00,,,0.00,WeatherCatV1.21B27,2013-09-14 05:11:00,
2013-09-14 01:16:00,60.1,54.6,29.71,South,175,0.0,0.0,82,0.00,,,0.00,WeatherCatV1.21B27,2013-09-14 05:16:00,
2013-09-14 01:21:00,60.0,54.2,29.71,SSE,165,0.0,1.0,81,0.00,,,0.00,WeatherCatV1.21B27,2013-09-14 05:21:00,
2013-09-14 01:26:00,60.0,54.2,29.71,NNW,332,0.0,3.0,81,0.00,,,0.00,WeatherCatV1.21B27,2013-09-14 05:26:00,
2013-09-14 01:31:00,60.0,54.2,29.71,WSW,247,0.0,1.0,81,0.00,,,0.00,WeatherCatV1.21B27,2013-09-14 05:31:00,
2013-09-14 01:36:00,60.0,54.2,29.71,SSW,195,0.0,0.0,81,0.00,,,0.00,WeatherCatV1.21B27,2013-09-14 05:36:00,
2013-09-14 01:41:00,60.0,54.2,29.71,SSW,195,0.0,0.0,81,0.00,,,0.00,WeatherCatV1.21B27,2013-09-14 05:41:00,
2013-09-14 01:46:00,60.0,54.2,29.72,SSE,156,0.0,0.0,81,0.00,,,0.00,WeatherCatV1.21B27,2013-09-14 05:46:00,
2013-09-14 01:51:00,60.0,53.8,29.72,West,279,0.0,5.0,80,0.00,,,0.00,WeatherCatV1.21B27,2013-09-14 05:51:00,
2013-09-14 01:56:00,60.0,53.8,29.72,SW,223,2.0,2.0,80,0.00,,,0.00,WeatherCatV1.21B27,2013-09-14 05:56:00,
2013-09-14 02:01:00,60.0,54.2,29.72,SW,216,3.0,3.0,81,0.00,,,0.00,WeatherCatV1.21B27,2013-09-14 06:01:00,
2013-09-14 02:06:00,60.0,54.2,29.72,SSW,194,0.0,2.0,81,0.00,,,0.00,WeatherCatV1.21B27,2013-09-14 06:06:00,
2013-09-14 02:11:00,60.0,54.2,29.72,SSE,154,0.0,1.0,81,0.00,,,0.00,WeatherCatV1.21B27,2013-09-14 06:11:00,
2013-09-14 02:16:00,59.9,53.7,29.72,SW,226,0.0,2.0,80,0.00,,,0.00,WeatherCatV1.21B27,2013-09-14 06:16:00,
2013-09-14 02:21:00,59.9,53.7,29.72,SSE,162,0.0,0.0,80,0.00,,,0.00,WeatherCatV1.21B27,2013-09-14 06:21:00,
2013-09-14 02:26:00,59.8,53.6,29.72,South,188,0.0,1.0,80,0.00,,,0.00,WeatherCatV1.21B27,2013-09-14 06:26:00,
2013-09-14 02:31:00,59.8,53.6,29.72,WSW,255,0.0,3.0,80,0.00,,,0.00,WeatherCatV1.21B27,2013-09-14 06:31:00,
2013-09-14 02:36:00,59.8,54.0,29.72,East,82,0.0,1.0,81,0.00,,,0.00,WeatherCatV1.21B27,2013-09-14 06:36:00,
2013-09-14 02:41:00,59.8,54.0,29.72,East,82,0.0,0.0,81,0.00,,,0.00,WeatherCatV1.21B27,2013-09-14 06:41:00,
2013-09-14 02:46:00,59.8,54.0,29.72,South,169,0.0,0.0,81,0.00,,,0.00,WeatherCatV1.21B27,2013-09-14 06:46:00,
2013-09-14 02:51:00,59.7,53.5,29.72,SW,227,0.0,0.0,80,0.00,,,0.00,WeatherCatV1.21B27,2013-09-14 06:51:00,
2013-09-14 02:56:00,59.7,53.9,29.72,SW,227,0.0,1.0,81,0.00,,,0.00,WeatherCatV1.21B27,2013-09-14 06:56:00,
2013-09-14 03:01:00,59.7,53.9,29.73,SW,227,0.0,1.0,81,0.00,,,0.00,WeatherCatV1.21B27,2013-09-14 07:01:00,
2013-09-14 03:06:00,59.6,53.8,29.72,SW,227,0.0,0.0,81,0.00,,,0.00,WeatherCatV1.21B27,2013-09-14 07:06:00,
2013-09-14 03:11:00,59.6,53.8,29.73,SW,221,0.0,2.0,81,0.00,,,0.00,WeatherCatV1.21B27,2013-09-14 07:11:00,
2013-09-14 03:16:00,59.5,53.7,29.73,SW,222,0.0,0.0,81,0.00,,,0.00,WeatherCatV1.21B27,2013-09-14 07:16:00,
2013-09-14 03:21:00,59.5,53.7,29.73,South,184,0.0,2.0,81,0.00,,,0.00,WeatherCatV1.21B27,2013-09-14 07:21:00,
2013-09-14 03:26:00,59.5,53.7,29.73,SSW,192,0.0,0.0,81,0.00,,,0.00,WeatherCatV1.21B27,2013-09-14 07:26:00,
2013-09-14 03:31:00,59.5,54.0,29.73,SSW,192,0.0,0.0,82,0.00,,,0.00,WeatherCatV1.21B27,2013-09-14 07:31:00,
2013-09-14 03:36:00,59.4,53.6,29.73,South,185,0.0,2.0,81,0.00,,,0.00,WeatherCatV1.21B27,2013-09-14 07:36:00,
2013-09-14 03:41:00,59.4,53.6,29.73,South,186,0.0,2.0,81,0.00,,,0.00,WeatherCatV1.21B27,2013-09-14 07:41:00,
2013-09-14 03:46:00,59.4,53.9,29.73,South,186,0.0,0.0,82,0.00,,,0.00,WeatherCatV1.21B27,2013-09-14 07:46:00,
2013-09-14 03:51:00,59.3,53.5,29.73,SSW,210,0.0,1.0,81,0.00,,,0.00,WeatherCatV1.21B27,2013-09-14 07:51:00,
2013-09-14 03:56:00,59.2,53.4,29.73,South,182,1.0,2.0,81,0.00,,,0.00,WeatherCatV1.21B27,2013-09-14 07:56:00,
2013-09-14 04:01:00,59.1,53.3,29.73,WSW,246,0.0,6.0,81,0.00,,,0.00,WeatherCatV1.21B27,2013-09-14 08:01:00,
2013-09-14 04:06:00,59.1,53.6,29.73,WSW,238,1.0,2.0,82,0.00,,,0.00,WeatherCatV1.21B27,2013-09-14 08:06:00,
2013-09-14 04:11:00,59.0,53.8,29.73,SW,221,0.0,1.0,83,0.00,,,0.00,WeatherCatV1.21B27,2013-09-14 08:11:00,
2013-09-14 04:16:00,58.9,53.4,29.73,SSW,211,0.0,0.0,82,0.00,,,0.00,WeatherCatV1.21B27,2013-09-14 08:16:00,
2013-09-14 04:21:00,58.8,53.0,29.73,South,188,0.0,1.0,81,0.00,,,0.00,WeatherCatV1.21B27,2013-09-14 08:21:00,
2013-09-14 04:26:00,58.7,52.9,29.73,SSW,200,0.0,1.0,81,0.00,,,0.00,WeatherCatV1.21B27,2013-09-14 08:26:00,
2013-09-14 04:31:00,58.7,53.2,29.73,South,183,0.0,1.0,82,0.00,,,0.00,WeatherCatV1.21B27,2013-09-14 08:31:00,
2013-09-14 04:36:00,58.7,53.5,29.73,South,182,0.0,0.0,83,0.00,,,0.00,WeatherCatV1.21B27,2013-09-14 08:36:00,
2013-09-14 04:41:00,58.7,53.5,29.73,South,182,0.0,0.0,83,0.00,,,0.00,WeatherCatV1.21B27,2013-09-14 08:41:00,
2013-09-14 04:46:00,58.7,53.2,29.73,SW,218,0.0,0.0,82,0.00,,,0.00,WeatherCatV1.21B27,2013-09-14 08:46:00,
2013-09-14 04:51:00,58.6,53.5,29.73,SW,218,0.0,0.0,83,0.00,,,0.00,WeatherCatV1.21B27,2013-09-14 08:51:00,
2013-09-14 04:56:00,58.6,53.1,29.73,South,180,0.0,0.0,82,0.00,,,0.00,WeatherCatV1.21B27,2013-09-14 08:56:00,
2013-09-14 05:01:00,58.5,53.0,29.73,South,177,0.0,0.0,82,0.00,,,0.00,WeatherCatV1.21B27,2013-09-14 09:01:00,
2013-09-14 05:06:00,58.5,53.3,29.73,South,177,0.0,0.0,83,0.00,,,0.00,WeatherCatV1.21B27,2013-09-14 09:06:00,
2013-09-14 05:11:00,58.4,52.9,29.74,South,177,0.0,1.0,82,0.00,,,0.00,WeatherCatV1.21B27,2013-09-14 09:11:00,
2013-09-14 05:16:00,58.2,53.1,29.75,South,177,0.0,0.0,83,0.00,,,0.00,WeatherCatV1.21B27,2013-09-14 09:16:00,
2013-09-14 05:21:00,58.1,53.0,29.75,SSW,211,0.0,2.0,83,0.00,,,0.00,WeatherCatV1.21B27,2013-09-14 09:21:00,
2013-09-14 05:26:00,58.1,53.0,29.75,SSW,211,0.0,0.0,83,0.00,,,0.00,WeatherCatV1.21B27,2013-09-14 09:26:00,
2013-09-14 05:31:00,58.1,53.0,29.75,South,182,0.0,0.0,83,0.00,,,0.00,WeatherCatV1.21B27,2013-09-14 09:31:00,
2013-09-14 05:36:00,58.1,53.0,29.75,South,183,0.0,0.0,83,0.00,,,0.00,WeatherCatV1.21B27,2013-09-14 09:36:00,
2013-09-14 05:41:00,58.0,52.9,29.75,South,183,0.0,0.0,83,0.00,,,0.00,WeatherCatV1.21B27,2013-09-14 09:41:00,
2013-09-14 05:46:00,58.0,52.9,29.75,South,182,0.0,3.0,83,0.00,,,0.00,WeatherCatV1.21B27,2013-09-14 09:46:00,
2013-09-14 05:51:00,58.0,52.9,29.76,SSW,197,0.0,0.0,83,0.00,,,0.00,WeatherCatV1.21B27,2013-09-14 09:51:00,
2013-09-14 05:56:00,58.0,52.9,29.76,SSW,197,0.0,1.0,83,0.00,,,0.00,WeatherCatV1.21B27,2013-09-14 09:56:00,
2013-09-14 06:01:00,58.0,52.9,29.76,WSW,238,0.0,3.0,83,0.00,,,0.00,WeatherCatV1.21B27,2013-09-14 10:01:00,
2013-09-14 06:06:00,58.0,52.9,29.76,WSW,252,0.0,2.0,83,0.00,,,0.00,WeatherCatV1.21B27,2013-09-14 10:06:00,
2013-09-14 06:11:00,57.9,52.8,29.76,South,180,0.0,3.0,83,0.00,,,0.00,WeatherCatV1.21B27,2013-09-14 10:11:00,
2013-09-14 06:16:00,57.9,52.8,29.76,SSW,202,0.0,1.0,83,0.00,,,0.00,WeatherCatV1.21B27,2013-09-14 10:16:00,
2013-09-14 06:21:00,57.9,52.8,29.76,SSW,202,0.0,0.0,83,0.00,,,0.00,WeatherCatV1.21B27,2013-09-14 10:21:00,
2013-09-14 06:26:00,57.9,53.1,29.77,SSW,201,0.0,0.0,84,0.00,,,0.00,WeatherCatV1.21B27,2013-09-14 10:26:00,
2013-09-14 06:31:00,57.8,52.7,29.77,SSW,200,0.0,1.0,83,0.00,,,0.00,WeatherCatV1.21B27,2013-09-14 10:31:00,
2013-09-14 06:36:00,57.8,52.7,29.77,South,173,0.0,0.0,83,0.00,,,0.00,WeatherCatV1.21B27,2013-09-14 10:36:00,
2013-09-14 06:41:00,57.8,53.0,29.77,SSE,165,0.0,3.0,84,0.00,,,0.00,WeatherCatV1.21B27,2013-09-14 10:41:00,
2013-09-14 06:46:00,57.7,52.6,29.77,SSE,168,0.0,1.0,83,0.00,,,0.00,WeatherCatV1.21B27,2013-09-14 10:46:00,
2013-09-14 06:51:00,57.7,52.6,29.77,South,172,0.0,1.0,83,0.00,,,0.00,WeatherCatV1.21B27,2013-09-14 10:51:00,
2013-09-14 06:56:00,57.6,52.8,29.78,South,172,0.0,0.0,84,0.00,,,0.00,WeatherCatV1.21B27,2013-09-14 10:56:00,
2013-09-14 07:01:00,57.5,52.7,29.78,South,172,0.0,0.0,84,0.00,,,0.00,WeatherCatV1.21B27,2013-09-14 11:01:00,
2013-09-14 07:06:00,57.3,52.5,29.78,SW,214,1.0,1.0,84,0.00,,,0.00,WeatherCatV1.21B27,2013-09-14 11:06:00,
2013-09-14 07:11:00,57.1,52.6,29.78,SSW,204,0.0,0.0,85,0.00,,,0.00,WeatherCatV1.21B27,2013-09-14 11:11:00,
2013-09-14 07:16:00,57.1,53.0,29.78,SSW,204,0.0,0.0,86,0.00,,,0.00,WeatherCatV1.21B27,2013-09-14 11:16:00,
2013-09-14 07:21:00,57.0,52.5,29.78,SSW,204,0.0,0.0,85,0.00,,,0.00,WeatherCatV1.21B27,2013-09-14 11:21:00,
2013-09-14 07:26:00,57.0,52.8,29.79,SSW,204,0.0,0.0,86,0.00,,,0.00,WeatherCatV1.21B27,2013-09-14 11:26:00,
2013-09-14 07:31:00,57.0,52.8,29.79,SSW,204,0.0,0.0,86,0.00,,,0.00,WeatherCatV1.21B27,2013-09-14 11:31:00,
2013-09-14 07:36:00,57.0,52.5,29.79,SSW,204,0.0,1.0,85,0.00,,,0.00,WeatherCatV1.21B27,2013-09-14 11:36:00,
2013-09-14 07:41:00,57.2,52.7,29.79,SSW,204,0.0,0.0,85,0.00,,,0.00,WeatherCatV1.21B27,2013-09-14 11:41:00,
2013-09-14 07:46:00,57.4,52.9,29.79,SW,225,0.0,2.0,85,0.00,,,0.00,WeatherCatV1.21B27,2013-09-14 11:46:00,
2013-09-14 07:51:00,57.5,52.7,29.80,SSW,202,0.0,3.0,84,0.00,,,0.00,WeatherCatV1.21B27,2013-09-14 11:51:00,
2013-09-14 07:56:00,57.7,53.2,29.80,SSW,199,0.0,1.0,85,0.00,,,0.00,WeatherCatV1.21B27,2013-09-14 11:56:00,
2013-09-14 08:01:00,57.8,53.0,29.80,SSW,198,0.0,1.0,84,0.00,,,0.00,WeatherCatV1.21B27,2013-09-14 12:01:00,
2013-09-14 08:06:00,58.1,53.3,29.80,SW,231,0.0,3.0,84,0.00,,,0.00,WeatherCatV1.21B27,2013-09-14 12:06:00,
2013-09-14 08:11:00,58.2,53.4,29.80,SSW,198,0.0,0.0,84,0.00,,,0.00,WeatherCatV1.21B27,2013-09-14 12:11:00,
2013-09-14 08:16:00,58.4,53.6,29.80,SSW,198,0.0,0.0,84,0.00,,,0.00,WeatherCatV1.21B27,2013-09-14 12:16:00,
2013-09-14 08:21:00,58.6,53.5,29.80,SSE,167,0.0,1.0,83,0.00,,,0.00,WeatherCatV1.21B27,2013-09-14 12:21:00,
2013-09-14 08:26:00,58.6,53.1,29.80,SW,220,0.0,0.0,82,0.00,,,0.00,WeatherCatV1.21B27,2013-09-14 12:26:00,
2013-09-14 08:31:00,58.7,53.2,29.80,SW,214,0.0,4.0,82,0.00,,,0.00,WeatherCatV1.21B27,2013-09-14 12:31:00,
2013-09-14 08:36:00,58.9,53.1,29.80,SW,225,0.0,1.0,81,0.00,,,0.00,WeatherCatV1.21B27,2013-09-14 12:36:00,
2013-09-14 08:41:00,58.9,52.7,29.81,WSW,249,0.0,5.0,80,0.00,,,0.00,WeatherCatV1.21B27,2013-09-14 12:41:00,
2013-09-14 08:46:00,58.9,52.7,29.81,South,180,2.0,4.0,80,0.00,,,0.00,WeatherCatV1.21B27,2013-09-14 12:46:00,
2013-09-14 08:51:00,59.0,53.2,29.81,SSW,198,0.0,1.0,81,0.00,,,0.00,WeatherCatV1.21B27,2013-09-14 12:51:00,
2013-09-14 08:56:00,59.1,53.3,29.81,SSW,195,0.0,1.0,81,0.00,,,0.00,WeatherCatV1.21B27,2013-09-14 12:56:00,
2013-09-14 09:01:00,59.4,53.6,29.81,SW,234,0.0,2.0,81,0.00,,,0.00,WeatherCatV1.21B27,2013-09-14 13:01:00,
2013-09-14 09:06:00,59.4,52.9,29.81,South,171,0.0,1.0,79,0.00,,,0.00,WeatherCatV1.21B27,2013-09-14 13:06:00,
2013-09-14 09:11:00,59.4,53.2,29.82,SSE,159,0.0,0.0,80,0.00,,,0.00,WeatherCatV1.21B27,2013-09-14 13:11:00,
2013-09-14 09:16:00,59.6,53.1,29.82,WSW,252,1.0,2.0,79,0.00,,,0.00,WeatherCatV1.21B27,2013-09-14 13:16:00,
2013-09-14 09:21:00,59.9,53.4,29.82,South,188,1.0,2.0,79,0.00,,,0.00,WeatherCatV1.21B27,2013-09-14 13:21:00,
2013-09-14 09:26:00,60.0,53.5,29.82,WSW,255,0.0,2.0,79,0.00,,,0.00,WeatherCatV1.21B27,2013-09-14 13:26:00,
2013-09-14 09:31:00,59.9,53.0,29.82,South,174,0.0,0.0,78,0.00,,,0.00,WeatherCatV1.21B27,2013-09-14 13:31:00,
2013-09-14 09:36:00,60.2,53.3,29.82,SW,214,1.0,2.0,78,0.00,,,0.00,WeatherCatV1.21B27,2013-09-14 13:36:00,
2013-09-14 09:41:00,60.1,53.2,29.82,West,271,0.0,2.0,78,0.00,,,0.00,WeatherCatV1.21B27,2013-09-14 13:41:00,
2013-09-14 09:46:00,60.2,53.3,29.83,South,189,0.0,3.0,78,0.00,,,0.00,WeatherCatV1.21B27,2013-09-14 13:46:00,
2013-09-14 09:51:00,60.3,53.4,29.83,South,187,0.0,6.0,78,0.00,,,0.00,WeatherCatV1.21B27,2013-09-14 13:51:00,
2013-09-14 09:56:00,60.5,54.0,29.83,South,169,0.0,1.0,79,0.00,,,0.00,WeatherCatV1.21B27,2013-09-14 13:56:00,
2013-09-14 10:01:00,60.8,53.9,29.82,SW,229,0.0,3.0,78,0.00,,,0.00,WeatherCatV1.21B27,2013-09-14 14:01:00,
2013-09-14 10:06:00,61.0,53.7,29.83,South,180,0.0,4.0,77,0.00,,,0.00,WeatherCatV1.21B27,2013-09-14 14:06:00,
2013-09-14 10:11:00,61.4,54.1,29.83,South,185,0.0,5.0,77,0.00,,,0.00,WeatherCatV1.21B27,2013-09-14 14:11:00,
2013-09-14 10:16:00,61.5,53.5,29.83,SSW,197,2.0,5.0,75,0.00,,,0.00,WeatherCatV1.21B27,2013-09-14 14:16:00,
2013-09-14 10:21:00,61.9,54.2,29.83,WNW,293,4.0,4.0,76,0.00,,,0.00,WeatherCatV1.21B27,2013-09-14 14:21:00,
2013-09-14 10:26:00,62.3,54.3,29.84,SSW,196,0.0,3.0,75,0.00,,,0.00,WeatherCatV1.21B27,2013-09-14 14:26:00,
2013-09-14 10:31:00,62.4,54.0,29.83,WSW,238,0.0,3.0,74,0.00,,,0.00,WeatherCatV1.21B27,2013-09-14 14:31:00,
2013-09-14 10:36:00,62.5,54.1,29.83,SSW,208,0.0,2.0,74,0.00,,,0.00,WeatherCatV1.21B27,2013-09-14 14:36:00,
2013-09-14 10:41:00,62.5,54.1,29.83,WNW,286,0.0,2.0,74,0.00,,,0.00,WeatherCatV1.21B27,2013-09-14 14:41:00,
2013-09-14 10:46:00,62.6,54.2,29.83,WNW,295,0.0,3.0,74,0.00,,,0.00,WeatherCatV1.21B27,2013-09-14 14:46:00,
2013-09-14 10:51:00,62.8,54.0,29.83,South,184,0.0,3.0,73,0.00,,,0.00,WeatherCatV1.21B27,2013-09-14 14:51:00,
2013-09-14 10:56:00,62.9,54.8,29.83,WNW,298,0.0,2.0,75,0.00,,,0.00,WeatherCatV1.21B27,2013-09-14 14:56:00,
2013-09-14 11:01:00,63.2,54.8,29.83,WNW,294,0.0,1.0,74,0.00,,,0.00,WeatherCatV1.21B27,2013-09-14 15:01:00,
2013-09-14 11:06:00,63.6,55.2,29.84,South,171,1.0,3.0,74,0.00,,,0.00,WeatherCatV1.21B27,2013-09-14 15:06:00,
2013-09-14 11:11:00,63.7,55.2,29.83,SSE,165,0.0,3.0,74,0.00,,,0.00,WeatherCatV1.21B27,2013-09-14 15:11:00,
2013-09-14 11:16:00,63.8,55.0,29.84,SW,221,0.0,2.0,73,0.00,,,0.00,WeatherCatV1.21B27,2013-09-14 15:16:00,
2013-09-14 11:21:00,64.0,54.8,29.84,WNW,289,0.0,1.0,72,0.00,,,0.00,WeatherCatV1.21B27,2013-09-14 15:21:00,
2013-09-14 11:26:00,64.2,54.2,29.84,WNW,289,0.0,1.0,70,0.00,,,0.00,WeatherCatV1.21B27,2013-09-14 15:26:00,
2013-09-14 11:31:00,64.2,54.6,29.84,WSW,258,0.0,6.0,71,0.00,,,0.00,WeatherCatV1.21B27,2013-09-14 15:31:00,
2013-09-14 11:36:00,64.3,54.3,29.84,South,185,2.0,2.0,70,0.00,,,0.00,WeatherCatV1.21B27,2013-09-14 15:36:00,
2013-09-14 11:41:00,64.4,54.8,29.84,SW,225,0.0,1.0,71,0.00,,,0.00,WeatherCatV1.21B27,2013-09-14 15:41:00,
2013-09-14 11:46:00,64.4,54.4,29.84,WSW,246,2.0,2.0,70,0.00,,,0.00,WeatherCatV1.21B27,2013-09-14 15:46:00,
2013-09-14 11:51:00,64.4,54.8,29.84,SW,229,0.0,4.0,71,0.00,,,0.00,WeatherCatV1.21B27,2013-09-14 15:51:00,
2013-09-14 11:56:00,64.6,55.4,29.84,SW,225,2.0,2.0,72,0.00,,,0.00,WeatherCatV1.21B27,2013-09-14 15:56:00,
2013-09-14 12:01:00,64.7,54.7,29.84,SW,228,0.0,2.0,70,0.00,,,0.00,WeatherCatV1.21B27,2013-09-14 16:01:00,
2013-09-14 12:06:00,64.6,54.6,29.84,South,174,0.0,0.0,70,0.00,,,0.00,WeatherCatV1.21B27,2013-09-14 16:06:00,
2013-09-14 12:11:00,64.9,54.9,29.84,SSE,163,0.0,0.0,70,0.00,,,0.00,WeatherCatV1.21B27,2013-09-14 16:11:00,
2013-09-14 12:16:00,64.9,54.5,29.84,SSW,209,2.0,3.0,69,0.00,,,0.00,WeatherCatV1.21B27,2013-09-14 16:16:00,
2013-09-14 12:21:00,64.7,53.9,29.84,SSW,204,0.0,4.0,68,0.00,,,0.00,WeatherCatV1.21B27,2013-09-14 16:21:00,
2013-09-14 12:26:00,64.5,54.5,29.84,SW,232,0.0,3.0,70,0.00,,,0.00,WeatherCatV1.21B27,2013-09-14 16:26:00,
2013-09-14 12:31:00,64.4,54.4,29.84,SSW,211,0.0,3.0,70,0.00,,,0.00,WeatherCatV1.21B27,2013-09-14 16:31:00,
2013-09-14 12:36:00,64.4,54.4,29.84,SSW,200,4.0,4.0,70,0.00,,,0.00,WeatherCatV1.21B27,2013-09-14 16:36:00,
2013-09-14 12:41:00,64.5,54.9,29.84,SSW,203,0.0,0.0,71,0.00,,,0.00,WeatherCatV1.21B27,2013-09-14 16:41:00,
2013-09-14 12:46:00,64.7,55.1,29.84,SSW,202,0.0,2.0,71,0.00,,,0.00,WeatherCatV1.21B27,2013-09-14 16:46:00,
2013-09-14 12:51:00,64.7,55.1,29.84,WSW,247,1.0,1.0,71,0.00,,,0.00,WeatherCatV1.21B27,2013-09-14 16:51:00,
2013-09-14 12:56:00,64.9,55.3,29.84,SW,215,0.0,1.0,71,0.00,,,0.00,WeatherCatV1.21B27,2013-09-14 16:56:00,
2013-09-14 13:01:00,65.0,55.0,29.84,SW,216,6.0,6.0,70,0.00,,,0.00,WeatherCatV1.21B27,2013-09-14 17:01:00,
2013-09-14 13:06:00,64.9,54.9,29.84,SW,234,4.0,4.0,70,0.00,,,0.00,WeatherCatV1.21B27,2013-09-14 17:06:00,
2013-09-14 13:11:00,64.7,55.1,29.84,SW,223,0.0,0.0,71,0.00,,,0.00,WeatherCatV1.21B27,2013-09-14 17:11:00,
2013-09-14 13:16:00,64.7,55.5,29.85,West,266,1.0,1.0,72,0.00,,,0.00,WeatherCatV1.21B27,2013-09-14 17:16:00,
2013-09-14 13:21:00,64.5,54.9,29.84,SW,231,0.0,4.0,71,0.00,,,0.00,WeatherCatV1.21B27,2013-09-14 17:21:00,
2013-09-14 13:26:00,64.4,54.4,29.85,SW,223,5.0,9.0,70,0.00,,,0.00,WeatherCatV1.21B27,2013-09-14 17:26:00,
2013-09-14 13:31:00,64.2,54.2,29.85,WSW,247,2.0,6.0,70,0.00,,,0.00,WeatherCatV1.21B27,2013-09-14 17:31:00,
2013-09-14 13:36:00,64.2,55.0,29.84,SSW,195,0.0,2.0,72,0.00,,,0.00,WeatherCatV1.21B27,2013-09-14 17:36:00,
2013-09-14 13:41:00,64.4,55.5,29.84,SSE,164,0.0,0.0,73,0.00,,,0.00,WeatherCatV1.21B27,2013-09-14 17:41:00,
2013-09-14 13:46:00,64.6,55.4,29.84,SW,225,0.0,1.0,72,0.00,,,0.00,WeatherCatV1.21B27,2013-09-14 17:46:00,
2013-09-14 13:51:00,64.7,54.7,29.84,SW,217,0.0,2.0,70,0.00,,,0.00,WeatherCatV1.21B27,2013-09-14 17:51:00,
2013-09-14 13:56:00,64.5,54.5,29.84,SW,234,0.0,5.0,70,0.00,,,0.00,WeatherCatV1.21B27,2013-09-14 17:56:00,
2013-09-14 14:01:00,64.3,54.7,29.84,SW,231,0.0,4.0,71,0.00,,,0.00,WeatherCatV1.21B27,2013-09-14 18:01:00,
2013-09-14 14:06:00,64.4,55.5,29.85,SW,229,0.0,1.0,73,0.00,,,0.00,WeatherCatV1.21B27,2013-09-14 18:06:00,
2013-09-14 14:11:00,64.5,54.5,29.85,SSW,199,0.0,4.0,70,0.00,,,0.00,WeatherCatV1.21B27,2013-09-14 18:11:00,
2013-09-14 14:16:00,64.4,54.8,29.85,SW,219,0.0,1.0,71,0.00,,,0.00,WeatherCatV1.21B27,2013-09-14 18:16:00,
2013-09-14 14:21:00,64.5,55.3,29.85,WNW,283,0.0,0.0,72,0.00,,,0.00,WeatherCatV1.21B27,2013-09-14 18:21:00,
2013-09-14 14:26:00,64.6,54.6,29.85,WNW,282,0.0,0.0,70,0.00,,,0.00,WeatherCatV1.21B27,2013-09-14 18:26:00,
2013-09-14 14:31:00,64.7,54.7,29.85,WNW,282,0.0,0.0,70,0.00,,,0.00,WeatherCatV1.21B27,2013-09-14 18:31:00,
2013-09-14 14:36:00,64.8,54.4,29.85,SW,214,0.0,2.0,69,0.00,,,0.00,WeatherCatV1.21B27,2013-09-14 18:36:00,
2013-09-14 14:41:00,64.7,54.7,29.85,SW,215,0.0,3.0,70,0.00,,,0.00,WeatherCatV1.21B27,2013-09-14 18:41:00,
2013-09-14 14:46:00,64.8,54.8,29.85,SW,215,0.0,1.0,70,0.00,,,0.00,WeatherCatV1.21B27,2013-09-14 18:46:00,
2013-09-14 14:51:00,64.7,54.3,29.85,SW,231,0.0,4.0,69,0.00,,,0.00,WeatherCatV1.21B27,2013-09-14 18:51:00,
2013-09-14 14:56:00,64.7,54.7,29.85,SW,216,1.0,5.0,70,0.00,,,0.00,WeatherCatV1.21B27,2013-09-14 18:56:00,
2013-09-14 15:01:00,64.5,54.5,29.85,WSW,248,0.0,3.0,70,0.00,,,0.00,WeatherCatV1.21B27,2013-09-14 19:01:00,
2013-09-14 15:06:00,64.5,54.9,29.85,WSW,247,3.0,4.0,71,0.00,,,0.00,WeatherCatV1.21B27,2013-09-14 19:06:00,
2013-09-14 15:11:00,64.4,54.4,29.85,SW,236,2.0,4.0,70,0.00,,,0.00,WeatherCatV1.21B27,2013-09-14 19:11:00,
2013-09-14 15:16:00,64.2,53.8,29.85,SSW,211,0.0,3.0,69,0.00,,,0.00,WeatherCatV1.21B27,2013-09-14 19:16:00,
2013-09-14 15:21:00,64.1,53.7,29.85,WSW,255,2.0,4.0,69,0.00,,,0.00,WeatherCatV1.21B27,2013-09-14 19:21:00,
2013-09-14 15:26:00,64.3,54.3,29.86,SW,225,1.0,3.0,70,0.00,,,0.00,WeatherCatV1.21B27,2013-09-14 19:26:00,
2013-09-14 15:31:00,64.5,55.3,29.85,SW,225,0.0,1.0,72,0.00,,,0.00,WeatherCatV1.21B27,2013-09-14 19:31:00,
2013-09-14 15:36:00,64.8,54.0,29.85,WSW,240,0.0,3.0,68,0.00,,,0.00,WeatherCatV1.21B27,2013-09-14 19:36:00,
2013-09-14 15:41:00,65.0,54.6,29.85,SW,226,0.0,2.0,69,0.00,,,0.00,WeatherCatV1.21B27,2013-09-14 19:41:00,
2013-09-14 15:46:00,65.2,54.8,29.85,West,266,0.0,3.0,69,0.00,,,0.00,WeatherCatV1.21B27,2013-09-14 19:46:00,
2013-09-14 15:51:00,65.8,55.3,29.86,South,174,0.0,0.0,69,0.00,,,0.00,WeatherCatV1.21B27,2013-09-14 19:51:00,
2013-09-14 15:56:00,66.1,55.2,29.86,SW,232,0.0,1.0,68,0.00,,,0.00,WeatherCatV1.21B27,2013-09-14 19:56:00,
2013-09-14 16:01:00,66.1,54.8,29.86,South,180,0.0,2.0,67,0.00,,,0.00,WeatherCatV1.21B27,2013-09-14 20:01:00,
2013-09-14 16:06:00,66.1,54.8,29.86,West,279,0.0,2.0,67,0.00,,,0.00,WeatherCatV1.21B27,2013-09-14 20:06:00,
2013-09-14 16:11:00,66.6,55.3,29.86,West,279,0.0,0.0,67,0.00,,,0.00,WeatherCatV1.21B27,2013-09-14 20:11:00,
2013-09-14 16:16:00,67.0,54.4,29.86,SSE,164,0.0,2.0,64,0.00,,,0.00,WeatherCatV1.21B27,2013-09-14 20:16:00,
2013-09-14 16:21:00,66.9,54.7,29.86,SSW,209,0.0,2.0,65,0.00,,,0.00,WeatherCatV1.21B27,2013-09-14 20:21:00,
2013-09-14 16:26:00,67.0,55.3,29.87,SSW,211,0.0,2.0,66,0.00,,,0.00,WeatherCatV1.21B27,2013-09-14 20:26:00,
2013-09-14 16:31:00,67.0,55.3,29.87,SW,219,0.0,1.0,66,0.00,,,0.00,WeatherCatV1.21B27,2013-09-14 20:31:00,
2013-09-14 16:36:00,67.1,54.9,29.87,SW,234,0.0,0.0,65,0.00,,,0.00,WeatherCatV1.21B27,2013-09-14 20:36:00,
2013-09-14 16:41:00,67.2,54.6,29.87,South,175,2.0,5.0,64,0.00,,,0.00,WeatherCatV1.21B27,2013-09-14 20:41:00,
2013-09-14 16:46:00,67.0,54.4,29.87,WSW,249,0.0,4.0,64,0.00,,,0.00,WeatherCatV1.21B27,2013-09-14 20:46:00,
2013-09-14 16:51:00,66.6,54.9,29.87,South,185,1.0,5.0,66,0.00,,,0.00,WeatherCatV1.21B27,2013-09-14 20:51:00,
2013-09-14 16:56:00,66.3,55.0,29.88,SW,217,1.0,2.0,67,0.00,,,0.00,WeatherCatV1.21B27,2013-09-14 20:56:00,
2013-09-14 17:01:00,66.5,54.8,29.88,SSW,213,0.0,1.0,66,0.00,,,0.00,WeatherCatV1.21B27,2013-09-14 21:01:00,
2013-09-14 17:06:00,67.1,55.3,29.88,SSW,207,3.0,3.0,66,0.00,,,0.00,WeatherCatV1.21B27,2013-09-14 21:06:00,
2013-09-14 17:11:00,67.3,55.1,29.88,SSW,198,0.0,1.0,65,0.00,,,0.00,WeatherCatV1.21B27,2013-09-14 21:11:00,
2013-09-14 17:16:00,67.0,54.8,29.88,NNE,19,0.0,1.0,65,0.00,,,0.00,WeatherCatV1.21B27,2013-09-14 21:16:00,
2013-09-14 17:21:00,66.7,55.0,29.88,South,187,0.0,3.0,66,0.00,,,0.00,WeatherCatV1.21B27,2013-09-14 21:21:00,
2013-09-14 17:26:00,66.2,54.5,29.89,West,281,0.0,0.0,66,0.00,,,0.00,WeatherCatV1.21B27,2013-09-14 21:26:00,
2013-09-14 17:31:00,65.7,54.0,29.88,West,265,1.0,3.0,66,0.00,,,0.00,WeatherCatV1.21B27,2013-09-14 21:31:00,
2013-09-14 17:36:00,65.4,54.2,29.88,WSW,256,0.0,2.0,67,0.00,,,0.00,WeatherCatV1.21B27,2013-09-14 21:36:00,
2013-09-14 17:41:00,65.2,54.0,29.88,WSW,246,0.0,4.0,67,0.00,,,0.00,WeatherCatV1.21B27,2013-09-14 21:41:00,
2013-09-14 17:46:00,65.0,54.2,29.89,SSE,159,0.0,2.0,68,0.00,,,0.00,WeatherCatV1.21B27,2013-09-14 21:46:00,
2013-09-14 17:51:00,64.9,54.1,29.89,SSE,159,0.0,0.0,68,0.00,,,0.00,WeatherCatV1.21B27,2013-09-14 21:51:00,
2013-09-14 17:56:00,64.7,54.3,29.89,SSE,159,0.0,0.0,69,0.00,,,0.00,WeatherCatV1.21B27,2013-09-14 21:56:00,
2013-09-14 18:01:00,64.5,55.3,29.89,SSE,160,0.0,0.0,72,0.00,,,0.00,WeatherCatV1.21B27,2013-09-14 22:01:00,
2013-09-14 18:06:00,64.3,55.5,29.89,SSE,152,0.0,0.0,73,0.00,,,0.00,WeatherCatV1.21B27,2013-09-14 22:06:00,
2013-09-14 18:11:00,64.0,54.8,29.90,SSE,157,0.0,1.0,72,0.00,,,0.00,WeatherCatV1.21B27,2013-09-14 22:11:00,
2013-09-14 18:16:00,63.8,54.6,29.90,SSE,157,0.0,0.0,72,0.00,,,0.00,WeatherCatV1.21B27,2013-09-14 22:16:00,
2013-09-14 18:21:00,63.4,54.2,29.90,SE,144,0.0,0.0,72,0.00,,,0.00,WeatherCatV1.21B27,2013-09-14 22:21:00,
2013-09-14 18:26:00,63.2,54.0,29.90,South,188,0.0,1.0,72,0.00,,,0.00,WeatherCatV1.21B27,2013-09-14 22:26:00,
2013-09-14 18:31:00,63.0,53.8,29.90,South,188,0.0,0.0,72,0.00,,,0.00,WeatherCatV1.21B27,2013-09-14 22:31:00,
2013-09-14 18:36:00,62.8,54.0,29.90,WSW,253,0.0,0.0,73,0.00,,,0.00,WeatherCatV1.21B27,2013-09-14 22:36:00,
2013-09-14 18:41:00,62.6,53.4,29.91,WSW,238,0.0,0.0,72,0.00,,,0.00,WeatherCatV1.21B27,2013-09-14 22:41:00,
2013-09-14 18:46:00,62.4,53.6,29.91,WSW,238,0.0,0.0,73,0.00,,,0.00,WeatherCatV1.21B27,2013-09-14 22:46:00,
2013-09-14 18:49:00,62.3,53.2,29.91,WSW,238,0.0,0.0,72,0.00,,,0.00,WeatherCatV1.21B27,2013-09-14 22:49:00,
2013-09-14 18:54:00,62.2,53.4,29.91,ESE,108,0.0,5.0,73,0.00,,,0.00,WeatherCatV1.21B27,2013-09-14 22:54:00,
2013-09-14 18:59:00,62.0,53.2,29.92,South,174,0.0,1.0,73,0.00,,,0.00,WeatherCatV1.21B27,2013-09-14 22:59:00,
2013-09-14 19:04:00,61.8,52.7,29.92,SW,218,0.0,1.0,72,0.00,,,0.00,WeatherCatV1.21B27,2013-09-14 23:04:00,
2013-09-14 19:09:00,61.7,53.3,29.92,SW,218,0.0,0.0,74,0.00,,,0.00,WeatherCatV1.21B27,2013-09-14 23:09:00,
2013-09-14 19:14:00,61.5,53.5,29.92,SW,218,0.0,0.0,75,0.00,,,0.00,WeatherCatV1.21B27,2013-09-14 23:14:00,
2013-09-14 19:19:00,61.3,53.3,29.92,SW,218,0.0,0.0,75,0.00,,,0.00,WeatherCatV1.21B27,2013-09-14 23:19:00,
2013-09-14 19:24:00,61.1,53.1,29.92,SW,218,0.0,0.0,75,0.00,,,0.00,WeatherCatV1.21B27,2013-09-14 23:24:00,
2013-09-14 19:29:00,60.9,53.3,29.92,SW,218,0.0,0.0,76,0.00,,,0.00,WeatherCatV1.21B27,2013-09-14 23:29:00,
2013-09-14 19:34:00,60.7,53.1,29.93,SW,218,0.0,0.0,76,0.00,,,0.00,WeatherCatV1.21B27,2013-09-14 23:34:00,
2013-09-14 19:39:00,60.4,52.8,29.93,SSW,196,0.0,0.0,76,0.00,,,0.00,WeatherCatV1.21B27,2013-09-14 23:39:00,
2013-09-14 19:44:00,60.3,53.1,29.93,SSW,196,0.0,0.0,77,0.00,,,0.00,WeatherCatV1.21B27,2013-09-14 23:44:00,
2013-09-14 19:49:00,60.0,53.1,29.94,SSW,196,0.0,0.0,78,0.00,,,0.00,WeatherCatV1.21B27,2013-09-14 23:49:00,
2013-09-14 19:54:00,59.8,52.9,29.94,SSW,196,0.0,0.0,78,0.00,,,0.00,WeatherCatV1.21B27,2013-09-14 23:54:00,
2013-09-14 19:59:00,59.7,52.8,29.94,SSW,196,0.0,0.0,78,0.00,,,0.00,WeatherCatV1.21B27,2013-09-14 23:59:00,
2013-09-14 20:04:00,59.5,52.3,29.95,SSW,196,0.0,0.0,77,0.00,,,0.00,WeatherCatV1.21B27,2013-09-15 00:04:00,
2013-09-14 20:09:00,59.4,52.2,29.95,SSW,196,0.0,0.0,77,0.00,,,0.00,WeatherCatV1.21B27,2013-09-15 00:09:00,
2013-09-14 20:14:00,59.3,52.4,29.95,SSW,196,0.0,0.0,78,0.00,,,0.00,WeatherCatV1.21B27,2013-09-15 00:14:00,
2013-09-14 20:19:00,59.2,52.3,29.95,SSW,196,0.0,0.0,78,0.00,,,0.00,WeatherCatV1.21B27,2013-09-15 00:19:00,
2013-09-14 20:24:00,59.0,52.2,29.96,SSW,196,0.0,0.0,78,0.00,,,0.00,WeatherCatV1.21B27,2013-09-15 00:24:00,
2013-09-14 20:29:00,58.9,51.7,29.96,SSW,195,0.0,0.0,77,0.00,,,0.00,WeatherCatV1.21B27,2013-09-15 00:29:00,
2013-09-14 20:34:00,58.7,51.2,29.96,SSW,195,0.0,0.0,76,0.00,,,0.00,WeatherCatV1.21B27,2013-09-15 00:34:00,
2013-09-14 20:39:00,58.6,51.8,29.96,SSW,195,0.0,0.0,78,0.00,,,0.00,WeatherCatV1.21B27,2013-09-15 00:39:00,
2013-09-14 20:44:00,58.4,51.6,29.96,SSW,195,0.0,0.0,78,0.00,,,0.00,WeatherCatV1.21B27,2013-09-15 00:44:00,
2013-09-14 20:49:00,58.2,51.7,29.97,SSW,195,0.0,0.0,79,0.00,,,0.00,WeatherCatV1.21B27,2013-09-15 00:49:00,
2013-09-14 20:54:00,58.0,51.5,29.97,SSW,195,0.0,0.0,79,0.00,,,0.00,WeatherCatV1.21B27,2013-09-15 00:54:00,
2013-09-14 20:59:00,57.8,51.7,29.97,SSW,195,0.0,0.0,80,0.00,,,0.00,WeatherCatV1.21B27,2013-09-15 00:59:00,
2013-09-14 21:04:00,57.5,51.4,29.97,SSW,195,0.0,0.0,80,0.00,,,0.00,WeatherCatV1.21B27,2013-09-15 01:04:00,
2013-09-14 21:09:00,57.4,51.6,29.97,SSW,195,0.0,0.0,81,0.00,,,0.00,WeatherCatV1.21B27,2013-09-15 01:09:00,
2013-09-14 21:14:00,57.2,51.8,29.97,SSW,195,0.0,0.0,82,0.00,,,0.00,WeatherCatV1.21B27,2013-09-15 01:14:00,
2013-09-14 21:19:00,57.0,51.6,29.97,SSW,195,0.0,0.0,82,0.00,,,0.00,WeatherCatV1.21B27,2013-09-15 01:19:00,
2013-09-14 21:24:00,56.7,51.3,29.98,SSW,195,0.0,0.0,82,0.00,,,0.00,WeatherCatV1.21B27,2013-09-15 01:24:00,
2013-09-14 21:29:00,56.4,51.3,29.98,SSW,195,0.0,0.0,83,0.00,,,0.00,WeatherCatV1.21B27,2013-09-15 01:29:00,
2013-09-14 21:34:00,56.2,51.4,29.98,SSW,195,0.0,0.0,84,0.00,,,0.00,WeatherCatV1.21B27,2013-09-15 01:34:00,
2013-09-14 21:39:00,56.0,51.2,29.98,SSW,195,0.0,0.0,84,0.00,,,0.00,WeatherCatV1.21B27,2013-09-15 01:39:00,
2013-09-14 21:44:00,55.7,51.3,29.98,SSW,195,0.0,0.0,85,0.00,,,0.00,WeatherCatV1.21B27,2013-09-15 01:44:00,
2013-09-14 21:49:00,55.6,51.5,29.98,SSW,195,0.0,0.0,86,0.00,,,0.00,WeatherCatV1.21B27,2013-09-15 01:49:00,
2013-09-14 21:54:00,55.5,51.4,29.98,SSW,195,0.0,0.0,86,0.00,,,0.00,WeatherCatV1.21B27,2013-09-15 01:54:00,
2013-09-14 21:59:00,55.3,51.5,29.98,SSW,195,0.0,0.0,87,0.00,,,0.00,WeatherCatV1.21B27,2013-09-15 01:59:00,
2013-09-14 22:04:00,55.0,51.2,29.98,SSW,195,0.0,0.0,87,0.00,,,0.00,WeatherCatV1.21B27,2013-09-15 02:04:00,
2013-09-14 22:09:00,54.9,51.4,29.98,SSW,195,0.0,0.0,88,0.00,,,0.00,WeatherCatV1.21B27,2013-09-15 02:09:00,
2013-09-14 22:14:00,54.7,51.2,29.98,SSW,195,0.0,0.0,88,0.00,,,0.00,WeatherCatV1.21B27,2013-09-15 02:14:00,
2013-09-14 22:19:00,54.4,50.9,29.98,SSW,195,0.0,0.0,88,0.00,,,0.00,WeatherCatV1.21B27,2013-09-15 02:19:00,
2013-09-14 22:24:00,54.3,50.8,29.98,SSW,195,0.0,0.0,88,0.00,,,0.00,WeatherCatV1.21B27,2013-09-15 02:24:00,
2013-09-14 22:29:00,54.2,51.0,29.99,SSW,195,0.0,0.0,89,0.00,,,0.00,WeatherCatV1.21B27,2013-09-15 02:29:00,
2013-09-14 22:34:00,54.1,50.9,29.99,SSW,195,0.0,0.0,89,0.00,,,0.00,WeatherCatV1.21B27,2013-09-15 02:34:00,
2013-09-14 22:39:00,54.0,50.8,29.99,SSW,195,0.0,0.0,89,0.00,,,0.00,WeatherCatV1.21B27,2013-09-15 02:39:00,
2013-09-14 22:44:00,53.9,50.7,29.99,SSW,195,0.0,0.0,89,0.00,,,0.00,WeatherCatV1.21B27,2013-09-15 02:44:00,
2013-09-14 22:49:00,53.7,50.5,29.99,SSW,195,0.0,0.0,89,0.00,,,0.00,WeatherCatV1.21B27,2013-09-15 02:49:00,
2013-09-14 22:54:00,53.6,50.7,29.99,SSW,195,0.0,0.0,90,0.00,,,0.00,WeatherCatV1.21B27,2013-09-15 02:54:00,
2013-09-14 22:59:00,53.5,50.6,29.99,SSW,195,0.0,0.0,90,0.00,,,0.00,WeatherCatV1.21B27,2013-09-15 02:59:00,
2013-09-14 23:04:00,53.5,50.6,29.99,SSW,195,0.0,0.0,90,0.00,,,0.00,WeatherCatV1.21B27,2013-09-15 03:04:00,
2013-09-14 23:09:00,53.4,50.5,29.99,SSW,195,0.0,0.0,90,0.00,,,0.00,WeatherCatV1.21B27,2013-09-15 03:09:00,
2013-09-14 23:14:00,53.3,50.4,29.99,SSW,195,0.0,0.0,90,0.00,,,0.00,WeatherCatV1.21B27,2013-09-15 03:14:00,
2013-09-14 23:19:00,53.2,50.6,29.99,SSW,195,0.0,0.0,91,0.00,,,0.00,WeatherCatV1.21B27,2013-09-15 03:19:00,
2013-09-14 23:24:00,53.1,50.5,29.99,SSW,195,0.0,0.0,91,0.00,,,0.00,WeatherCatV1.21B27,2013-09-15 03:24:00,
2013-09-14 23:29:00,53.0,50.4,29.99,SSW,195,0.0,0.0,91,0.00,,,0.00,WeatherCatV1.21B27,2013-09-15 03:29:00,
2013-09-14 23:34:00,52.9,50.3,29.99,SSW,195,0.0,0.0,91,0.00,,,0.00,WeatherCatV1.21B27,2013-09-15 03:34:00,
2013-09-14 23:39:00,52.7,50.2,30.00,SSW,195,0.0,0.0,91,0.00,,,0.00,WeatherCatV1.21B27,2013-09-15 03:39:00,
2013-09-14 23:44:00,52.6,50.3,30.00,SSW,195,0.0,0.0,92,0.00,,,0.00,WeatherCatV1.21B27,2013-09-15 03:44:00,
2013-09-14 23:49:00,52.5,50.2,30.00,SSW,195,0.0,0.0,92,0.00,,,0.00,WeatherCatV1.21B27,2013-09-15 03:49:00,
2013-09-14 23:54:00,52.4,50.1,30.00,SSW,195,0.0,0.0,92,0.00,,,0.00,WeatherCatV1.21B27,2013-09-15 03:54:00,
2013-09-14 23:59:00,52.3,50.0,30.00,SSW,195,0.0,0.0,92,0.00,,,0.00,WeatherCatV1.21B27,2013-09-15 03:59:00,